Torna al catalogo

STARLINK-34825

AttivoComunicazioniVLEO
NORAD 65692·PAYLOAD·🇺🇸 United States

Lanciato Sep 21, 2025 da Cape Canaveral Space Force Station

Loading…

Prossimi Passaggi (prossime 24 ore)

TLE

AggiornatoSource: CelesTrak SupGP

Epoca: Sep 14, 2026, 21:16 UTC

1 65692C 25212S   26257.88659722 -.00008453  00000+0 -24965-3 0  2576
2 65692  53.1575 184.0132 0001309  94.1074 163.7488 15.34405956    13

Traccia STARLINK-34825 in tempo reale con AllMySat

Download on the App Store